{"data":{"norad_id":50821,"intl_designator":"2022-001U","name":"STARLINK-3346","alt_names":[],"object_type":"PAYLOAD","status":"ACTIVE","operator":null,"country":"US","launch_date":"2022-01-06","launch_site_code":"AFETR","launch_vehicle":null,"mission":null,"orbit_class":"UNKNOWN","rcs_meters":null,"size_class":null,"mass_kg":null,"dimensions":null,"purposes":["comms"],"wikipedia_slug":null,"has_3d_model":false,"image_url":null,"decayed_at":null,"tle_current":{"epoch":"2026-09-19T23:53:57.454368Z","epoch_age_seconds":91977,"freshness":"FRESH","line1":"1 50821U 22001U   26262.99580387  .00000343  00000+0  22816-4 0  9990","line2":"2 50821  53.1607   6.1496 0001122  86.0412 274.0718 15.31703123259880","mean_motion":15.31703123,"eccentricity":0.0001122,"inclination_deg":53.1607,"raan_deg":6.1496,"arg_perigee_deg":86.0412,"mean_anomaly_deg":274.0718,"bstar":2.2816e-5,"rev_number":25988,"period_min":94.012996276955,"perigee_km":469.96224278663,"apogee_km":471.49912869531,"semimajor_km":6848.867685741,"source":"CELESTRAK","updated_at":"2026-09-20T09:00:39.578237Z"}}}